STARLINK-1280, 45388

Orbit data source: Space-Track

STARLINK-1280, 45388 is a payload satellite owned by SpaceX/Seattle (US) in LEO that was launched on Wed, 18 Mar 2020 UTC via an FALCON 9 launch vehicle from the Air Force Eastern Test Range (AFETR). Payload-class satellites include a variety of spacecraft equipped with specific instruments for various scientific and technological missions. These include communications satellites like Starlink; space stations such as the ISS; scientific satellites like the Hubble; Earth observation satellites from companies like Planet Labs, Umbra, and HawkEye 360; GPS; miniature CubeSats for education and research; and military/defense satellites.

Loading next visibility...
Identifier
45388, 2020-019AE
Orbit
LEO
Country
Flag of USUS
Related business
Manufacturer
SpaceX/Seattle
Mission
Partially operational Commercial Communications
Bus & Motor
STARLINK, Unknown motor
Mass
260 kg wet, ~248 kg dry
Launch date (UTC)
2020-03-18 (6 years ago)
Launch vehicle
FALCON 9
Launch site
Air Force Eastern Test Range (AFETR)
Object type
Payload
Rocket body
Debris
Shape & HBR
Box + 1 Pan, 10.1 m
Radar Cross Section
13.562 m², Large (>1 m²)

Expand to show TLE details & history
Last TLE update: 6 hours ago

TLE from 6 hours ago
0 STARLINK-1280
1 45388U 20019AE  26036.08696673  .00121592  00000-0  15550-2 0  9990
2 45388  53.0467 281.8306 0007514  87.7970 272.3902 15.58328809325248
Epoch: 2026-02-05T02:05Z
TLE epoch observation values (Epoch: 2026-02-05T02:05:13.925Z)
Latitude
-0.00001°
Longitude
115.27834°
Altitude
393.183 km
Speed
7.676 km/s
True Right ascension
18h 47m 19s
True Declination
0° 00' 00"
Sunlit
Object was in daylight at epoch
Visualization orbit readout
Latitude
Unknown
Longitude
Unknown
Altitude
Unknown
Speed
Unknown
Apparent Right ascension
Unknown
Apparent Declination
Unknown
Sunlit
N/A
Visualization observer readout
Local Sidereal Time
09:45:55
Azimuth
Unknown
Elevation
Unknown
Doppler factor
Unknown
Orbital elements
Apogee altitude
397.859 km
Perigee altitude
387.684 km
Semi-major axis
6,770.908 km
Eccentricity
0.00075
Inclination
53.0467°
RAAN
281.8306°
Arg. of periapsis
87.797°
True anomaly
272.30417°
Mean anomaly
272.3902°
Eccentric anomaly
272.34718°
Mean motion
3.89559 °/min
Orbital period
92.41 mins
BSTAR
0.001555
Loading maneuver chart data...
Computing Atmospheric mass density...

Documentation

Showing up to 5 results
|